Weather History for KIMT - June, 2014

Change the Weather History Date:

Wednesday, June 25, 2014

  Actual Average Record
Temperature  
Mean Temperature 60 °F -  
Max Temperature 68 °F 77 °F 93 °F (1987)
Min Temperature 53 °F 53 °F 37 °F (1970)
Degree Days  
Heating Degree Days 6    
Growing Degree Days 10 (Base 50)    
Moisture  
Dew Point 52 °F    
Average Humidity 78    
Maximum Humidity 93    
Minimum Humidity 63    
Precipitation  
Precipitation 0.00 in - - ()
Sea Level Pressure  
Sea Level Pressure 30.05 in    
Wind  
Wind Speed 6 mph (NNE)    
Max Wind Speed 13 mph    
Max Gust Speed 18 mph    
Visibility 10 miles    
Events      
Averages and records for this station are not official NWS values.
T = Trace of Precipitation, MM = Missing Value Source: NWS Daily Summary

Daily Weather History Graph

Daily Weather History Graph

Search for Another Location

Airport or City:

Trip Planner

Search our weather history database for the weather conditions in past years. The results will help you decide how hot, cold, wet, or windy it might be!

Date:

Astronomy

Jun. 25, 2014 Rise Set
Actual Time 5:03 AM CDT 8:46 PM CDT
Civil Twilight 4:25 AM CDT 9:24 PM CDT
Nautical Twilight 3:33 AM CDT 10:16 PM CDT
Astronomical Twilight 2:22 AM CDT 11:27 PM CDT
Moon 4:00 AM CDT (6/25) 7:13 PM CDT (6/25)
Length of Visible Light 16h 59m
Length of Day
15h 43m
Waning Crescent, 3% of the Moon is Illuminated
Jun 25
Waning Crescent
Jun 27
New
Jul 5
First Quarter
Jul 12
Full
Jul 18
Last Quarter

Hourly Weather History & Observations

Time (CDT) Temp. Dew Point Humidity Pressure Visibility Wind Dir Wind Speed Gust Speed Precip Events Conditions
12:54 AM 55.0 °F 52.0 °F 89% 30.02 in 10.0 mi North 10.4 mph - N/A   Overcast
1:54 AM 55.0 °F 51.1 °F 86% 30.01 in 10.0 mi NNE 8.1 mph - N/A   Overcast
2:54 AM 54.0 °F 51.1 °F 90% 30.03 in 10.0 mi North 5.8 mph - N/A   Overcast
3:24 AM 53.1 °F 51.1 °F 93% 30.03 in 6.0 mi NNE 4.6 mph - N/A   Overcast
3:54 AM 54.0 °F 51.1 °F 90% 30.03 in 7.0 mi North 4.6 mph - N/A   Overcast
4:40 AM 54.0 °F 51.1 °F 90% 30.02 in 9.0 mi NNE 6.9 mph - N/A   Overcast
4:54 AM 54.0 °F 51.1 °F 90% 30.02 in 10.0 mi Variable 4.6 mph - N/A   Overcast
5:24 AM 54.0 °F 50.0 °F 86% 30.03 in 10.0 mi NNE 4.6 mph - N/A   Overcast
5:54 AM 55.0 °F 50.0 °F 83% 30.03 in 10.0 mi NNE 5.8 mph - N/A   Overcast
6:54 AM 54.0 °F 50.0 °F 86% 30.05 in 10.0 mi NE 3.5 mph - N/A   Overcast
7:54 AM 55.0 °F 51.1 °F 86% 30.06 in 10.0 mi Calm Calm - N/A   Overcast
8:54 AM 57.9 °F 52.0 °F 81% 30.06 in 10.0 mi North 4.6 mph - N/A   Overcast
9:18 AM 59.0 °F 53.1 °F 81% 30.06 in 10.0 mi NNE 6.9 mph - N/A   Overcast
9:54 AM 60.1 °F 54.0 °F 80% 30.07 in 10.0 mi North 8.1 mph - N/A   Overcast
10:54 AM 62.1 °F 54.0 °F 75% 30.06 in 10.0 mi Variable 3.5 mph - N/A   Overcast
11:54 AM 63.0 °F 55.0 °F 75% 30.08 in 10.0 mi Variable 4.6 mph - N/A   Overcast
12:15 PM 63.0 °F 54.0 °F 72% 30.07 in 10.0 mi NNE 3.5 mph - N/A   Overcast
12:54 PM 62.1 °F 54.0 °F 75% 30.08 in 10.0 mi NNE 5.8 mph - N/A   Overcast
1:54 PM 63.0 °F 55.0 °F 75% 30.06 in 10.0 mi NNE 5.8 mph - N/A   Overcast
2:38 PM 64.9 °F 54.0 °F 68% 30.05 in 10.0 mi NNE 12.7 mph 18.4 mph N/A   Overcast
2:54 PM 66.0 °F 54.0 °F 65% 30.05 in 10.0 mi NE 10.4 mph - N/A   Overcast
3:30 PM 66.0 °F 54.0 °F 65% 30.06 in 10.0 mi NE 5.8 mph - N/A   Mostly Cloudy
3:54 PM 66.0 °F 54.0 °F 65% 30.06 in 10.0 mi NE 4.6 mph - N/A   Overcast
4:27 PM 66.0 °F 53.1 °F 63% 30.06 in 10.0 mi Variable 5.8 mph - N/A   Mostly Cloudy
4:54 PM 66.0 °F 53.1 °F 63% 30.07 in 10.0 mi Variable 4.6 mph - N/A   Overcast
5:51 PM 66.2 °F 53.6 °F 64% 30.05 in 10.0 mi East 4.6 mph - N/A   Overcast
5:54 PM 66.0 °F 53.1 °F 63% 30.06 in 10.0 mi Calm Calm - N/A   Overcast
6:54 PM 64.9 °F 52.0 °F 63% 30.07 in 10.0 mi East 4.6 mph - N/A   Overcast
9:54 PM 57.0 °F 51.1 °F 81% 30.09 in 10.0 mi Calm Calm - N/A   Overcast
10:54 PM 55.9 °F 52.0 °F 87% 30.09 in 10.0 mi Calm Calm - N/A   Overcast